User: anonymous   Login
Location: Caribou
(46.8667°N, 68.0167°W)
Time: 18:32:39
(UTC-05:00)
Language:

SL-08 RB Rocket - Orbit

View from above orbital plane
View from above orbital plane
View from above satellite
View from above satellite

Ground track
Ground track

The orbit data is extracted from the following two-line orbital elements,

1 26387U 00033D   18023.81325088  .00000104  00000-0  26283-4 0  9991
2 26387  97.9427  87.1100 0026333 358.4466  68.2843 14.68354555940253
Epoch (UTC): 23 January 2018 19:31:04
Eccentricity: 0.0026333
inclination: 97.9427°
perigee height: 648 km
apogee height: 685 km
right ascension of ascending node: 87.1100°
argument of perigee: 358.4466°
revolutions per day: 14.68354555
mean anomaly at epoch: 68.2843°
orbit number at epoch: 94025

The dashed part of the orbit path shows where the satellite is in the earth's shadow,  

DLR